DW9324 Weather Reports


Display with metric or nautical units.
time (UTC)temp
F
wind
direction
speed
MPH
gust
MPH
rain 1hr
in
rain 24hr
in
rain mn
in
humidity
%
barometer
mb
20220528191514 80 96 0.0 3.0 0.00 0.54 0.54 58 1010.8
20220528190018 81 236 0.0 3.0 0.00 0.54 0.54 58 1011.0
20220528184522 82 155 0.0 5.0 0.00 0.54 0.54 56 1011.1
20220528183014 81 210 0.0 2.0 0.00 0.54 0.54 56 1011.0
20220528181516 82 212 0.0 3.0 0.00 0.54 0.54 60 1011.2
20220528180011 80 241 0.0 3.0 0.00 0.54 0.54 57 1011.2
20220528174508 79 94 0.0 2.0 0.00 0.54 0.54 60 1011.2
20220528173007 79 220 0.0 1.0 0.00 0.54 0.54 61 1011.4
20220528171506 80 199 0.0 4.0 0.00 0.54 0.54 57 1011.5
20220528170011 79 204 0.0 3.0 0.00 0.54 0.54 58 1011.5
20220528164509 81 292 0.0 1.0 0.00 0.55 0.54 58 1011.4
20220528163004 80 169 0.0 4.0 0.00 0.55 0.54 58 1011.5
20220528161605 79 61 0.0 4.0 0.00 0.55 0.54 58 1011.7
20220528161507 79 205 0.0 3.0 0.00 0.55 0.54 58 1011.7
20220528160058 78 114 0.0 3.0 0.00 0.55 0.54 59 1011.6
20220528154602 77 217 1.0 6.0 0.00 0.68 0.54 59 1011.7
20220528153058 77 270 0.0 2.0 0.00 0.68 0.54 65 1011.7
20220528151553 77 63 0.0 6.0 0.00 0.68 0.54 63 1011.9
20220528150055 76 64 0.0 3.0 0.00 0.68 0.54 69 1011.8
20220528144559 76 150 0.0 2.0 0.00 1.24 0.54 66 1011.8
20220528143047 75 262 1.0 4.0 0.00 1.24 0.54 73 1011.7
20220528141558 75 227 0.0 0.0 0.00 1.24 0.54 73 1011.7
20220528140044 75 70 0.0 0.0 0.00 1.24 0.54 73 1011.8
20220528134540 74 144 0.0 1.0 0.00 3.06 0.54 77 1011.7
20220528133040 73 234 0.0 1.0 0.00 3.06 0.54 78 1011.5
20220528131541 71 263 0.0 0.0 0.00 3.06 0.54 84 1011.5
20220528130036 71 240 0.0 1.0 0.00 3.06 0.54 84 1011.5
20220528124536 71 304 0.0 0.0 0.00 3.06 0.54 87 1011.4
20220528123103 69 272 0.0 0.0 0.00 3.06 0.54 89 1011.2
20220528121555 68 231 0.0 0.0 0.00 3.06 0.54 91 1011.0
20220528120021 67 254 0.0 1.0 0.00 3.06 0.54 94 1010.9
20220528114521 65 213 0.0 0.0 0.00 3.06 0.54 97 1010.7
20220528113024 65 326 0.0 0.0 0.00 3.06 0.54 99 1010.5
20220528111533 63 326 0.0 0.0 0.00 3.06 0.54 99 1010.3
20220528110022 61 327 0.0 0.0 0.00 3.06 0.54 99 1010.2
20220528104514 60 324 0.0 0.0 0.00 3.06 0.54 98 1010.0
20220528103019 60 324 0.0 0.0 0.00 3.06 0.54 98 1009.9
20220528101510 61 324 0.0 0.0 0.00 3.06 0.54 98 1009.7
20220528100009 61 324 0.0 0.0 0.00 3.06 0.54 98 1009.4
20220528094508 61 324 0.0 0.0 0.00 3.06 0.54 98 1009.4
20220528093007 61 324 0.0 0.0 0.00 3.06 0.54 98 1009.3
20220528091506 62 324 0.0 0.0 0.00 3.06 0.54 98 1009.1
20220528090006 62 324 0.0 0.0 0.00 3.06 0.54 98 1009.1
20220528084504 62 324 0.0 0.0 0.00 3.07 0.54 98 1009.2
20220528083004 62 324 0.0 0.0 0.00 3.07 0.54 98 1009.2
20220528081502 62 324 0.0 0.0 0.00 3.07 0.54 98 1008.9
20220528080105 63 324 0.0 0.0 0.00 3.07 0.54 98 1008.9
20220528074601 63 324 0.0 0.0 0.00 3.07 0.54 98 1009.0
20220528073057 63 324 0.0 0.0 0.00 3.07 0.54 98 1009.2
20220528071558 64 324 0.0 0.0 0.01 3.07 0.54 98 1009.3
20220528070055 64 324 0.0 0.0 0.26 3.07 0.54 97 1009.3
20220528064554 64 323 0.0 0.0 0.53 3.07 0.54 97 1009.4
20220528063054 64 323 0.0 0.0 0.54 3.07 0.54 97 1009.4
20220528061552 64 323 0.0 1.0 0.53 3.06 0.53 96 1009.4
20220528060048 65 209 0.0 4.0 0.24 2.77 0.24 95 1009.9
20220528054544 66 194 0.0 0.0 0.00 2.52 0.00 95 1008.8
20220528053049 68 233 0.0 1.0 0.00 2.52 0.00 98 1009.0
20220528051544 68 244 0.0 2.0 0.00 2.52 0.00 99 1009.1
20220528050047 68 279 0.0 1.0 0.00 2.52 0.00 99 1009.1
20220528044543 67 219 0.0 0.0 0.00 2.52 0.00 98 1008.8
20220528043044 67 219 0.0 0.0 0.00 2.52 0.00 98 1008.7
20220528041546 67 219 0.0 0.0 0.00 2.52 0.00 98 1008.8
20220528040037 67 219 0.0 0.0 0.00 2.52 0.00 98 1008.8
20220528034539 68 219 0.0 0.0 0.00 2.52 2.52 98 1008.8
20220528033049 68 219 0.0 1.0 0.00 2.52 2.52 98 1008.9
20220528031537 68 260 0.0 0.0 0.00 2.52 2.52 98 1008.7
20220528030049 68 223 0.0 0.0 0.00 2.52 2.52 98 1008.7
20220528024530 68 34 0.0 0.0 0.00 2.52 2.52 98 1008.8
20220528023031 68 37 0.0 0.0 0.00 2.52 2.52 98 1008.8
20220528021528 68 43 0.0 0.0 0.00 2.52 2.52 98 1008.7
20220528020031 68 318 0.0 0.0 0.00 2.52 2.52 97 1008.7
20220528014527 68 318 0.0 0.0 0.00 2.52 2.52 97 1008.6
20220528013029 68 318 0.0 0.0 0.00 2.52 2.52 97 1008.5
20220528011526 69 318 0.0 0.0 0.00 2.52 2.52 96 1008.4
20220528010026 69 318 0.0 0.0 0.00 2.52 2.52 96 1008.4
20220528004525 70 318 0.0 0.0 0.00 2.52 2.52 95 1008.4
20220528003032 70 318 0.0 0.0 0.00 2.52 2.52 95 1008.3
20220528001539 71 318 0.0 0.0 0.00 2.52 2.52 93 1008.3
20220528000024 71 53 0.0 2.0 0.00 2.52 2.52 93 1008.2
20220527234525 72 5 0.0 1.0 0.00 2.52 2.52 92 1008.2
20220527233023 72 35 0.0 3.0 0.00 2.52 2.52 92 1008.1
20220527231530 73 56 0.0 3.0 0.00 2.52 2.52 91 1008.0
20220527230022 73 290 0.0 4.0 0.00 2.52 2.52 90 1008.0
20220527224533 74 287 0.0 2.0 0.00 2.52 2.52 88 1008.2
20220527223040 76 252 0.0 4.0 0.00 2.52 2.52 84 1008.2
20220527221521 76 44 0.0 5.0 0.00 2.52 2.52 84 1008.3
20220527220025 75 335 1.0 4.0 0.00 2.52 2.52 87 1008.3
20220527214519 75 292 0.0 2.0 0.00 2.52 2.52 89 1008.1
20220527213019 74 86 0.0 2.0 0.00 2.52 2.52 92 1007.9
20220527211520 73 348 0.0 1.0 0.00 2.52 2.52 94 1008.1
20220527210017 73 40 0.0 2.0 0.00 2.52 2.52 93 1007.7
20220527204526 73 239 0.0 2.0 0.00 2.52 2.52 92 1008.1
20220527203017 74 283 0.0 2.0 0.00 2.52 2.52 92 1008.2
20220527201516 74 290 0.0 1.0 0.00 2.52 2.52 91 1008.0
20220527200015 76 40 0.0 1.0 0.00 2.52 2.52 91 1007.9
20220527194512 77 279 0.0 2.0 0.00 2.52 2.52 89 1008.1
20220527193010 77 304 0.0 7.0 0.00 2.52 2.52 88 1008.5